sat.trackr.live / text

‹ back to catalog

STARLINK-31233

NORAD 58826 · 2024-017A

PAYLOAD ACTIVE UNKNOWN

§ Identity

Operator
Country
US
Launch date
2024-01-24
Launch site
AFWTR
Launch vehicle
Mass (kg)
RCS (m²)

Purposes: comms

External: N2YO · Heavens-Above · Gunter

§ Orbital elements

Epoch: 2026-05-24T21:21:59.277024Z

Period
94.11 min
Inclination
53.1597°
Eccentricity
0.0000965
Mean motion
15.30195183 rev/d
Perigee alt
474.6 km
Apogee alt
475.9 km
Semi-major
6,853.4 km
B*
2.5562e-5
RAAN
210.3256°
Arg perigee
97.8860°
Mean anomaly
262.2250°
Rev number
13,184

§ Raw data

STARLINK-312331 58826U 24017A   26144.89026941  .00000398  00000+0  25562-4 0  99922 58826  53.1597 210.3256 0000965  97.8860 262.2250 15.30195183131840

JSON: /api/v1/satellites/58826 · /tle

For live sub-satellite position, see the globe view (requires WebGL).

§ Visibility from observer

Set your observer location to see the next 7 days of passes ≥ 10°. The values pass through the URL so the page stays shareable.

No JS? Fill the form by hand. The geolocation button needs JavaScript.